{"data":{"norad_id":58163,"epoch":"2026-09-20T14:40:18.657120Z","epoch_age_seconds":130869,"freshness":"FRESH","line1":"1 58163U 23166P   26263.61132705  .00001873  00000+0  66566-4 0  9996","line2":"2 58163  53.1599  20.8635 0001667  89.9917 270.1276 15.34402896163203","mean_motion":15.34402896,"eccentricity":0.0001667,"inclination_deg":53.1599,"raan_deg":20.8635,"arg_perigee_deg":89.9917,"mean_anomaly_deg":270.1276,"bstar":6.6566e-5,"rev_number":16320,"period_min":93.847580955035,"perigee_km":461.55426606517,"apogee_km":463.83499933151,"semimajor_km":6840.8316326983,"source":"CELESTRAK","updated_at":"2026-09-21T09:00:33.798250Z"}}